Flag for U.S.A. Weather past 2 weeks in Scottsdale, Arizona, U.S.A.

Now
71 °F

Clear.


Feels Like: 69 °F
Forecast: 72 / 89 °F
Wind: 3 mph from Southwest

Location: Scottsdale Airport

Current Time: Aug 22, 2014 at 1:31:14 AM

Latest Report: Aug 22, 2014 at 12:53 AM


Visibility: 10 mi

Pressure: 29.91 "Hg

Humidity: 87%

Dew point: 67 °F

Location of ScottsdaleLocation

Historic Weather in Scottsdale — Graph

°F

Scottsdale temperature yesterday

Maximum temperature yesterday: 87 °F (at 4:53 PM)
Minimum temperature yesterday: 70 °F (at 9:53 PM)
Average temperature yesterday: 82 °F

Past Weeks' High & Low Weather Summary

 TemperatureHumidityPressure
High107 °F (Aug 17, 4:53 PM)94% (Aug 19, 1:03 PM)29.99 "Hg (Aug 19, 1:03 PM)
Low70 °F (Aug 19, 12:53 PM)12% (Aug 7, 1:53 PM)29.68 "Hg (Aug 17, 4:53 PM)
Average89 °F41%29.84 "Hg
* Reported Aug 6 11:53 PM — Aug 21 11:53 PM, Scottsdale, Weather by CustomWeather, © 2014

Note: Actual official high and low records may vary slightly from our data, if they occured in-between our weather recording intervals... More about our weather records

Advertising

Scottsdale weather history for previous 24 hours

 ConditionsComfort  
Time TempWeatherWind HumidityBarometerVisibility
11:53 PM
Aug 21
72 °FPassing clouds.6 mph78%29.92 "Hg10 mi
10:53 PM71 °FOvercast.7 mph84%29.95 "Hg10 mi
9:53 PM70 °FRain. Fog.8 mph90%29.99 "Hg4 mi
8:53 PM75 °FOvercast.21 mph69%29.94 "Hg10 mi
7:53 PM85 °FPassing clouds.No wind42%29.87 "Hg10 mi
6:53 PM86 °FScattered clouds.No wind39%29.84 "Hg10 mi
5:53 PM87 °FSunny.No wind36%29.85 "Hg10 mi
4:53 PM87 °FPassing clouds.3 mph36%29.84 "Hg10 mi
3:53 PM86 °FPartly sunny.3 mph42%29.84 "Hg10 mi
2:53 PM84 °FLight rain. Partly sunny.5 mph45%29.87 "Hg10 mi
1:53 PM83 °FPartly sunny.6 mph41%29.91 "Hg10 mi
12:53 PM82 °FPartly sunny.14 mph44%29.92 "Hg10 mi
11:53 AM84 °FSunny.12 mph40%29.94 "Hg10 mi
10:53 AM86 °FSunny.8 mph45%29.92 "Hg10 mi
9:53 AM85 °FSunny.5 mph45%29.92 "Hg10 mi
8:53 AM83 °FSunny.3 mph46%29.89 "Hg10 mi
7:53 AM82 °FSunny.No wind51%29.88 "Hg10 mi
6:53 AM81 °FSunny.No wind53%29.87 "Hg10 mi
5:53 AM80 °FSunny.No wind54%29.85 "Hg10 mi
4:53 AM81 °FClear.3 mph49%29.83 "Hg10 mi
3:53 AM80 °FClear.3 mph54%29.82 "Hg10 mi
2:53 AM81 °FClear.No wind54%29.82 "Hg10 mi
1:53 AM83 °FClear.No wind50%29.81 "Hg10 mi
Weather by CustomWeather, © 2014

See weather overviewHow to use our weather pages